Regional Weather Roundup
Issued by NWS Bismarck, ND

Home | Current Version | Previous Version | Text Only | Print | Product List | Glossary On
Versions: 1 2 3 4 5 6 7 8 9 10 11 12 13 14 15 16 17 18 19 20 21 22 23 24 25 26 27 28 29 30 31 32 33 34 35 36 37 38 39 40 41 42 43 44 45 46 47 48 49 50
000
ASUS43 KBIS 240002
RWRBIS

NWR BROADCAST TEXT
NATIONAL WEATHER SERVICE BISMARCK ND
700 PM CDT FRI SEP 23 2016

NOTE: "FAIR" INDICATES FEW OR NO CLOUDS BELOW 12,000 FEET WITH NO
SIGNIFICANT WEATHER AND/OR OBSTRUCTIONS TO VISIBILITY.


CITY           SKY/WX    TMP DP  RH WIND       PRES   REMARKS
WILLISTON      CLOUDY    56  53  90 E6        29.85S FOG
MINOT          CLOUDY    56  55  97 NE10      29.90F FOG
MINOT AFB      CLOUDY    54  53  97 E14       29.88F FOG
BISMARCK       CLOUDY    60  59  96 E7        29.85S
DICKINSON      LGT RAIN  56  55  97 E10       29.82R FOG
GARRISON         N/A     57  57 100 E8        29.87S
HETTINGER ARPT CLOUDY    60  59  96 E8        29.81S FOG
JAMESTOWN      CLOUDY    59  59 100 SE16G22   29.90F
CARRINGTON     CLOUDY    59  57  94 SE21G29   29.92S
HAZEN          FAIR      57  57 100 E8        29.87F FOG
RUGBY          FAIR      55  55 100 SE14G24   29.93R
STANLEY        CLOUDY    54  54 100 E13G21    29.89R
$$

CITY           SKY/WX    TMP DP  RH WIND       PRES   REMARKS
GRAND FORKS    LGT RAIN  60  55  83 E16       30.00S
GRAND FORKS AF LGT RAIN  58  56  93 SE15      29.99F
DEVILS LAKE    TSTM      57  55  93 E20G26    29.94F
FARGO          CLOUDY    62  57  83 SE8       29.99R
CANDO          CLOUDY    55  55 100 E18G29    29.96F
CAVALIER       CLOUDY    59  50  72 E10       30.02F
GRAFTON        CLOUDY    59  54  82 E10       30.03S
GWINNER        CLOUDY    63  63 100 E15G22    29.93F
LANGDON        CLOUDY    57  50  77 E21G28    29.98F
ROLLA          CLOUDY    54  50  87 E15G23    29.96F
WALHALLA       FAIR      63  59  88 SE13G21   30.02F
$$

CITY           SKY/WX    TMP DP  RH WIND       PRES   REMARKS
ABERDEEN       MOCLDY    69  63  81 E22G29    29.83S
MOBRIDGE       CLOUDY    67  62  84 E10G16    29.72F
BUFFALO          N/A     64  63  96 NE7       29.73S
RAPID CITY     CLOUDY    69  59  70 N8        29.69F
GLASGOW        CLOUDY    53  52  96 W5        29.86R
SIDNEY         CLOUDY    55  55 100 CALM      29.84R FOG
WOLF POINT     CLOUDY    57  54  89 E3        29.85R
MILES CITY     CLOUDY    57  55  93 NW8       29.84S
BAKER          LGT RAIN  58  57  97 E6        29.82F FOG
$$

CITY           SKY/WX    TMP DP  RH WIND       PRES   REMARKS
BILLINGS       CLOUDY    54  49  83 SE6       29.92R
GREAT FALLS    CLOUDY    60  44  55 SW13      29.87S
$$





USA.gov is the U.S. government's official web portal to all federal, state and local government web resources and services.